Location: Chiroubles
(46.1812°N, 4.6660°E)
Time: 00:22:36
(UTC+00:00)

Courier 1B - Pass Details

Date: 01 August 2021
Orbit: 963 x 1209 km, 28.3° (Epoch: 24 September)

Event Time Altitude Azimuth Distance (km) Brightness Sun altitude
Rises 20:33:12 0° 241° (WSW) 4,097 11.0 -12.4°
Reaches altitude 10° 20:36:59 10° 225° (SW) 3,114 10.2 -12.9°
Maximum altitude 20:42:08 19° 183° (S) 2,437 9.2 -13.6°
Enters shadow 20:44:55 16° 156° (SSE) 2,620 9.2 -13.9°
